Location: Lesignano de� Bagni
(44.6500°N, 10.3000°E)
Time: 19:58:23
(UTC+00:00)

Cosmos 2237 - Pass Details

Date: 03 March 2021
Orbit: 845 x 856 km, 70.8° (Epoch: 17 April)

Event Time Altitude Azimuth Distance (km) Brightness Sun altitude
Rises 18:05:55 0° 195° (SSW) 3,405 7.5 -10.9°
Reaches altitude 10° 18:08:22 10° 192° (SSW) 2,475 6.8 -11.3°
Maximum altitude 18:14:00 66° 111° (ESE) 929 4.2 -12.3°
Drops below altitude 10° 18:19:41 10° 31° (NNE) 2,497 6.4 -13.3°
Sets 18:22:10 0° 29° (NNE) 3,438 7.1 -13.7°
